Location: Voyageurs National Park
(48.5020°N, 92.9292°W)
Time: 06:01:14
(UTC-05:00)

Cosmos 468 Rocket - Pass Details

Date: 19 January 2018
Orbit: 745 x 780 km, 74.0° (Epoch: 20 May)

Event Time Altitude Azimuth Distance (km) Brightness Sun altitude
Exits shadow 06:46:48 - 326° (NNW) 2,466 6.2 -11.2°
Reaches altitude 10° 06:47:17 10° 325° (NW) 2,284 6.0 -11.1°
Maximum altitude 06:52:07 41° 256° (WSW) 1,087 4.4 -10.3°
Drops below altitude 10° 06:56:58 10° 187° (S) 2,289 6.6 -9.6°
Sets 06:59:26 0° 180° (S) 3,216 7.5 -9.2°
